sat.trackr.live / text

‹ back to catalog

FLOCK 4G-11

NORAD 62629 · 2025-009W

PAYLOAD ACTIVE UNKNOWN

§ Identity

Operator
Country
US
Launch date
2025-01-14
Launch site
AFWTR
Launch vehicle
Mass (kg)
RCS (m²)

Purposes: earth_obs

External: N2YO · Heavens-Above · Gunter

§ Orbital elements

Epoch: 2026-09-18T03:51:36.909504Z

Period
94.05 min
Inclination
97.3860°
Eccentricity
0.0002541
Mean motion
15.31084807 rev/d
Perigee alt
470.8 km
Apogee alt
474.3 km
Semi-major
6,850.7 km
B*
2.9333e-4
RAAN
342.1274°
Arg perigee
24.9606°
Mean anomaly
335.1757°
Rev number
9,313

§ Raw data

FLOCK 4G-111 62629U 25009W   26261.16084386  .00008734  00000+0  29333-3 0  99982 62629  97.3860 342.1274 0002541  24.9606 335.1757 15.31084807 93136

JSON: /api/v1/satellites/62629 · /tle

For live sub-satellite position, see the globe view (requires WebGL).

§ Visibility from observer

Set your observer location to see the next 7 days of passes ≥ 10°. The values pass through the URL so the page stays shareable.

No JS? Fill the form by hand. The geolocation button needs JavaScript.